| time (UTC) | temp C | wind direction | speed KPH | gust KPH | rain 1hr cm | rain 24hr cm | rain mn cm | humidity % | barometer mb |
| 20260906082503 | 22 | 130 | 1.6 | 14.5 | 0.00 | 0.00 | 0.00 | 96 | 1012.5 |
| 20260906082003 | 22 | 118 | 6.4 | 17.7 | 0.00 | 0.00 | 0.00 | 96 | 1012.6 |
| 20260906081504 | 23 | 115 | 3.2 | 17.7 | 0.00 | 0.00 | 0.00 | 96 | 1012.8 |
| 20260906081005 | 23 | 79 | 6.4 | 17.7 | 0.00 | 0.00 | 0.00 | 95 | 1012.9 |
| 20260906080504 | 23 | 93 | 6.4 | 22.5 | 0.00 | 0.00 | 0.00 | 95 | 1013.2 |
| 20260906080004 | 23 | 73 | 6.4 | 22.5 | 0.00 | 0.00 | 0.00 | 95 | 1013.4 |
| 20260906075503 | 23 | 83 | 9.7 | 27.4 | 0.00 | 0.00 | 0.00 | 94 | 1013.7 |
| 20260906075003 | 23 | 94 | 9.7 | 27.4 | 0.00 | 0.00 | 0.00 | 94 | 1013.8 |
| 20260906074503 | 23 | 97 | 6.4 | 27.4 | 0.00 | 0.00 | 0.00 | 95 | 1013.5 |
| 20260906074004 | 24 | 56 | 8.0 | 24.1 | 0.00 | 0.00 | 0.00 | 96 | 1013.8 |
| 20260906073505 | 24 | 71 | 11.3 | 24.1 | 0.00 | 0.00 | 0.00 | 96 | 1013.9 |
| 20260906073003 | 24 | 58 | 8.0 | 25.7 | 0.00 | 0.00 | 0.00 | 97 | 1014.0 |
| 20260906072503 | 24 | 90 | 6.4 | 25.7 | 0.00 | 0.00 | 0.00 | 97 | 1013.8 |
| 20260906072003 | 24 | 37 | 6.4 | 25.7 | 0.00 | 0.00 | 0.00 | 97 | 1014.0 |
| 20260906071504 | 24 | 58 | 4.8 | 27.4 | 0.00 | 0.00 | 0.00 | 97 | 1014.1 |
| 20260906071003 | 25 | 18 | 9.7 | 30.6 | 0.00 | 0.00 | 0.00 | 97 | 1014.1 |
| 20260906070503 | 25 | 3 | 12.9 | 30.6 | 0.00 | 0.00 | 0.00 | 98 | 1014.0 |
| 20260906070025 | 25 | 19 | 6.4 | 11.3 | 0.00 | 0.00 | 0.00 | 98 | 1013.8 |
| 20260906065503 | 25 | 64 | 1.6 | 11.3 | 0.00 | 0.00 | 0.00 | 99 | 1013.4 |
| 20260906065004 | 24 | 104 | 1.6 | 12.9 | 0.00 | 0.00 | 0.00 | 100 | 1013.4 |
| 20260906064525 | 24 | 94 | 4.8 | 12.9 | 0.00 | 0.00 | 0.00 | 100 | 1013.3 |
| 20260906064004 | 24 | 88 | 1.6 | 11.3 | 0.00 | 0.00 | 0.00 | 100 | 1013.3 |
| 20260906063505 | 24 | 140 | 0.0 | 4.8 | 0.00 | 0.00 | 0.00 | 100 | 1013.2 |
| 20260906063003 | 24 | 140 | 0.0 | 4.8 | 0.00 | 0.00 | 0.00 | 100 | 1012.9 |
| 20260906062503 | 24 | 140 | 0.0 | 4.8 | 0.00 | 0.00 | 0.00 | 100 | 1013.0 |
| 20260906062003 | 24 | 150 | 0.0 | 0.0 | 0.00 | 0.00 | 0.00 | 100 | 1013.2 |
| 20260906061503 | 24 | 150 | 0.0 | 4.8 | 0.00 | 0.00 | 0.00 | 100 | 1013.2 |
| 20260906061003 | 24 | 187 | 1.6 | 4.8 | 0.00 | 0.00 | 0.00 | 100 | 1013.4 |
| 20260906060503 | 24 | 82 | 0.0 | 8.0 | 0.00 | 0.00 | 0.00 | 100 | 1013.3 |
| 20260906060005 | 24 | 82 | 0.0 | 8.0 | 0.00 | 0.00 | 0.00 | 100 | 1013.3 |
| 20260906055503 | 24 | 94 | 0.0 | 8.0 | 0.00 | 0.00 | 0.00 | 100 | 1013.1 |
| 20260906055003 | 24 | 72 | 0.0 | 4.8 | 0.00 | 0.00 | 0.00 | 100 | 1013.2 |
| 20260906054503 | 24 | 81 | 0.0 | 9.7 | 0.00 | 0.00 | 0.00 | 100 | 1013.3 |
| 20260906054003 | 24 | 152 | 1.6 | 9.7 | 0.00 | 0.00 | 0.00 | 100 | 1013.5 |
| 20260906053504 | 24 | 94 | 1.6 | 9.7 | 0.00 | 0.00 | 0.00 | 100 | 1013.7 |
| 20260906053004 | 24 | 230 | 0.0 | 9.7 | 0.00 | 0.00 | 0.00 | 100 | 1013.3 |
| 20260906052504 | 24 | 203 | 4.8 | 11.3 | 0.00 | 0.00 | 0.00 | 100 | 1013.1 |
| 20260906052004 | 24 | 216 | 0.0 | 11.3 | 0.00 | 0.00 | 0.00 | 100 | 1013.0 |
| 20260906051503 | 24 | 194 | 3.2 | 9.7 | 0.00 | 0.00 | 0.00 | 99 | 1012.9 |
| 20260906051003 | 24 | 178 | 1.6 | 9.7 | 0.00 | 0.00 | 0.00 | 99 | 1012.9 |
| 20260906050504 | 24 | 39 | 0.0 | 0.0 | 0.00 | 0.00 | 0.00 | 99 | 1012.8 |
| 20260906050004 | 24 | 39 | 0.0 | 0.0 | 0.00 | 0.00 | 0.00 | 98 | 1012.9 |
| 20260906045504 | 24 | 39 | 0.0 | 0.0 | 0.00 | 0.00 | 0.00 | 98 | 1012.9 |
| 20260906045003 | 24 | 39 | 0.0 | 0.0 | 0.00 | 0.00 | 0.00 | 98 | 1013.0 |
| 20260906044503 | 23 | 39 | 0.0 | 0.0 | 0.00 | 0.00 | 0.00 | 98 | 1013.0 |
| 20260906044003 | 23 | 39 | 0.0 | 0.0 | 0.00 | 0.00 | 0.00 | 98 | 1013.1 |
| 20260906043503 | 23 | 39 | 0.0 | 0.0 | 0.00 | 0.00 | 0.00 | 98 | 1013.2 |
| 20260906042503 | 23 | 39 | 0.0 | 0.0 | 0.00 | 0.00 | 0.00 | 98 | 1013.3 |
| 20260906042004 | 23 | 39 | 0.0 | 0.0 | 0.00 | 0.00 | 0.00 | 98 | 1013.3 |
| 20260906041503 | 23 | 39 | 0.0 | 0.0 | 0.00 | 0.00 | 0.00 | 97 | 1013.3 |
| 20260906041005 | 23 | 39 | 0.0 | 0.0 | 0.00 | 0.00 | 0.00 | 97 | 1013.2 |
| 20260906040524 | 23 | 39 | 0.0 | 0.0 | 0.00 | 0.00 | 0.00 | 97 | 1013.2 |
| 20260906040004 | 23 | 39 | 0.0 | 0.0 | 0.00 | 0.00 | 0.00 | 96 | 1013.2 |
| 20260906035504 | 23 | 39 | 0.0 | 0.0 | 0.00 | 0.00 | 0.00 | 96 | 1013.2 |
| 20260906035005 | 23 | 39 | 0.0 | 0.0 | 0.00 | 0.00 | 0.00 | 96 | 1013.3 |
| 20260906034502 | 23 | 39 | 0.0 | 0.0 | 0.00 | 0.00 | 0.00 | 95 | 1013.3 |
| 20260906034004 | 23 | 39 | 0.0 | 0.0 | 0.00 | 0.00 | 0.00 | 95 | 1013.3 |
| 20260906033503 | 23 | 39 | 0.0 | 0.0 | 0.00 | 0.00 | 0.00 | 94 | 1013.3 |
| 20260906033003 | 23 | 39 | 0.0 | 0.0 | 0.00 | 0.00 | 0.00 | 94 | 1013.3 |
| 20260906032504 | 24 | 39 | 0.0 | 0.0 | 0.00 | 0.00 | 0.00 | 94 | 1013.3 |
| 20260906032003 | 24 | 39 | 0.0 | 0.0 | 0.00 | 0.00 | 0.00 | 93 | 1013.3 |
| 20260906031503 | 24 | 39 | 0.0 | 0.0 | 0.00 | 0.00 | 0.00 | 93 | 1013.2 |
| 20260906031004 | 24 | 39 | 0.0 | 0.0 | 0.00 | 0.00 | 0.00 | 93 | 1013.2 |
| 20260906030503 | 24 | 39 | 0.0 | 0.0 | 0.00 | 0.00 | 0.00 | 93 | 1013.2 |
| 20260906030024 | 24 | 39 | 0.0 | 0.0 | 0.00 | 0.00 | 0.00 | 92 | 1013.3 |
| 20260906025503 | 24 | 39 | 0.0 | 0.0 | 0.00 | 0.00 | 0.00 | 91 | 1013.3 |
| 20260906025003 | 25 | 39 | 0.0 | 0.0 | 0.00 | 0.00 | 0.00 | 91 | 1013.2 |
| 20260906024504 | 24 | 39 | 0.0 | 0.0 | 0.00 | 0.00 | 0.00 | 91 | 1013.1 |
| 20260906024004 | 25 | 39 | 0.0 | 0.0 | 0.00 | 0.00 | 0.00 | 91 | 1013.2 |
| 20260906023503 | 25 | 39 | 0.0 | 0.0 | 0.00 | 0.00 | 0.00 | 90 | 1013.0 |
| 20260906023003 | 25 | 39 | 0.0 | 0.0 | 0.00 | 0.00 | 0.00 | 89 | 1012.9 |
| 20260906022504 | 25 | 39 | 0.0 | 0.0 | 0.00 | 0.00 | 0.00 | 89 | 1012.8 |
| 20260906022003 | 25 | 39 | 0.0 | 0.0 | 0.00 | 0.00 | 0.00 | 88 | 1012.8 |
| 20260906021504 | 25 | 39 | 0.0 | 0.0 | 0.00 | 0.00 | 0.00 | 88 | 1012.7 |
| 20260906020504 | 25 | 39 | 0.0 | 0.0 | 0.00 | 0.00 | 0.00 | 87 | 1012.6 |
| 20260906020003 | 25 | 39 | 0.0 | 0.0 | 0.00 | 0.00 | 0.00 | 86 | 1012.5 |
| 20260906015503 | 25 | 39 | 0.0 | 0.0 | 0.00 | 0.00 | 0.00 | 85 | 1012.4 |
| 20260906015003 | 25 | 39 | 0.0 | 0.0 | 0.00 | 0.00 | 0.00 | 85 | 1012.4 |
| 20260906014525 | 25 | 39 | 0.0 | 0.0 | 0.00 | 0.00 | 0.00 | 84 | 1012.4 |
| 20260906014003 | 25 | 39 | 0.0 | 0.0 | 0.00 | 0.00 | 0.00 | 84 | 1012.2 |
| 20260906013503 | 25 | 39 | 0.0 | 0.0 | 0.00 | 0.00 | 0.00 | 83 | 1012.1 |
| 20260906013003 | 25 | 39 | 0.0 | 0.0 | 0.00 | 0.00 | 0.00 | 83 | 1012.1 |
| 20260906012503 | 26 | 39 | 0.0 | 0.0 | 0.00 | 0.00 | 0.00 | 83 | 1012.2 |
| 20260906012003 | 26 | 39 | 0.0 | 0.0 | 0.00 | 0.00 | 0.00 | 82 | 1012.1 |
| 20260906011524 | 26 | 39 | 0.0 | 0.0 | 0.00 | 0.00 | 0.00 | 82 | 1012.0 |
| 20260906011024 | 26 | 39 | 0.0 | 0.0 | 0.00 | 0.00 | 0.00 | 81 | 1012.0 |
| 20260906010525 | 26 | 39 | 0.0 | 0.0 | 0.00 | 0.00 | 0.00 | 81 | 1012.0 |
| 20260906010004 | 26 | 39 | 0.0 | 0.0 | 0.00 | 0.00 | 0.00 | 81 | 1011.8 |
| 20260906005525 | 26 | 39 | 0.0 | 0.0 | 0.00 | 0.00 | 0.00 | 81 | 1011.7 |
| 20260906005003 | 26 | 39 | 0.0 | 4.8 | 0.00 | 0.00 | 0.00 | 81 | 1011.6 |
| 20260906004504 | 26 | 56 | 0.0 | 4.8 | 0.00 | 0.00 | 0.00 | 81 | 1011.6 |
| 20260906003524 | 27 | 132 | 0.0 | 4.8 | 0.00 | 0.00 | 0.00 | 80 | 1011.6 |
| 20260906003003 | 27 | 132 | 0.0 | 9.7 | 0.00 | 0.00 | 0.00 | 79 | 1011.7 |
| 20260906002504 | 27 | 91 | 1.6 | 11.3 | 0.00 | 0.00 | 0.00 | 78 | 1011.8 |
| 20260906002024 | 28 | 78 | 4.8 | 11.3 | 0.00 | 0.00 | 0.00 | 77 | 1011.9 |
| 20260906001524 | 28 | 88 | 0.0 | 11.3 | 0.00 | 0.00 | 0.00 | 76 | 1012.0 |
| 20260906001003 | 28 | 104 | 3.2 | 11.3 | 0.00 | 0.00 | 0.00 | 77 | 1012.1 |
| 20260906000503 | 28 | 120 | 3.2 | 17.7 | 0.00 | 0.00 | 0.00 | 76 | 1012.2 |
| 20260906000045 | 29 | 130 | 3.2 | 24.1 | 0.00 | 0.00 | 0.00 | 74 | 1012.3 |
| 20260905235526 | 30 | 89 | 9.7 | 24.1 | 0.00 | 0.00 | 0.00 | 73 | 1012.4 |
| 20260905235003 | 31 | 95 | 6.4 | 29.0 | 0.00 | 0.00 | 0.00 | 71 | 1012.4 |
| 20260905234503 | 31 | 76 | 6.4 | 29.0 | 0.00 | 0.00 | 0.00 | 68 | 1012.2 |
| 20260905234004 | 32 | 92 | 6.4 | 17.7 | 0.00 | 0.00 | 0.00 | 66 | 1011.9 |
| 20260905233504 | 33 | 334 | 1.6 | 12.9 | 0.00 | 0.00 | 0.00 | 65 | 1011.9 |
| 20260905233004 | 33 | 333 | 3.2 | 12.9 | 0.00 | 0.00 | 0.00 | 64 | 1011.6 |
| 20260905232503 | 33 | 298 | 0.0 | 11.3 | 0.00 | 0.00 | 0.00 | 64 | 1011.5 |
| 20260905232004 | 33 | 358 | 3.2 | 14.5 | 0.00 | 0.00 | 0.00 | 64 | 1011.5 |
| 20260905231525 | 33 | 246 | 6.4 | 17.7 | 0.00 | 0.00 | 0.00 | 64 | 1011.5 |
| 20260905231003 | 33 | 326 | 12.9 | 17.7 | 0.00 | 0.00 | 0.00 | 65 | 1011.4 |
| 20260905230505 | 33 | 320 | 3.2 | 11.3 | 0.00 | 0.00 | 0.00 | 65 | 1011.3 |
| 20260905230003 | 33 | 244 | 1.6 | 9.7 | 0.00 | 0.00 | 0.00 | 64 | 1011.4 |
| 20260905225503 | 33 | 154 | 0.0 | 0.0 | 0.00 | 0.00 | 0.00 | 63 | 1011.3 |
| 20260905225005 | 33 | 154 | 0.0 | 0.0 | 0.00 | 0.00 | 0.00 | 63 | 1011.3 |
| 20260905224503 | 33 | 154 | 0.0 | 0.0 | 0.00 | 0.00 | 0.00 | 63 | 1011.3 |
| 20260905224003 | 34 | 154 | 0.0 | 0.0 | 0.00 | 0.00 | 0.00 | 63 | 1011.3 |
| 20260905223505 | 34 | 154 | 0.0 | 0.0 | 0.00 | 0.00 | 0.00 | 62 | 1011.3 |
| 20260905223004 | 34 | 154 | 0.0 | 4.8 | 0.00 | 0.00 | 0.00 | 61 | 1011.3 |
| 20260905222504 | 35 | 119 | 1.6 | 4.8 | 0.00 | 0.00 | 0.00 | 61 | 1011.3 |
| 20260905222004 | 35 | 277 | 0.0 | 3.2 | 0.00 | 0.00 | 0.00 | 61 | 1011.3 |
| 20260905221503 | 35 | 278 | 0.0 | 4.8 | 0.00 | 0.00 | 0.00 | 60 | 1011.4 |
| 20260905221003 | 34 | 278 | 0.0 | 9.7 | 0.00 | 0.00 | 0.00 | 60 | 1011.3 |
| 20260905220526 | 34 | 266 | 1.6 | 9.7 | 0.00 | 0.00 | 0.00 | 60 | 1011.4 |
| 20260905220004 | 34 | 284 | 0.0 | 4.8 | 0.00 | 0.00 | 0.00 | 62 | 1011.4 |
| 20260905215503 | 33 | 284 | 0.0 | 4.8 | 0.00 | 0.00 | 0.00 | 62 | 1011.4 |
| 20260905215003 | 33 | 352 | 0.0 | 0.0 | 0.00 | 0.00 | 0.00 | 63 | 1011.4 |
| 20260905214504 | 33 | 352 | 0.0 | 0.0 | 0.00 | 0.00 | 0.00 | 62 | 1011.4 |
| 20260905214003 | 33 | 352 | 0.0 | 8.0 | 0.00 | 0.00 | 0.00 | 61 | 1011.5 |
| 20260905213525 | 34 | 340 | 0.0 | 11.3 | 0.00 | 0.00 | 0.00 | 60 | 1011.5 |
| 20260905213003 | 35 | 342 | 4.8 | 11.3 | 0.00 | 0.00 | 0.00 | 59 | 1011.5 |
| 20260905212503 | 35 | 313 | 3.2 | 9.7 | 0.00 | 0.00 | 0.00 | 58 | 1011.4 |
| 20260905212004 | 35 | 358 | 0.0 | 9.7 | 0.00 | 0.00 | 0.00 | 58 | 1011.4 |
| 20260905211504 | 35 | 348 | 3.2 | 9.7 | 0.00 | 0.00 | 0.00 | 58 | 1011.5 |
| 20260905211005 | 35 | 84 | 0.0 | 9.7 | 0.00 | 0.00 | 0.00 | 58 | 1011.4 |
| 20260905210504 | 35 | 326 | 0.0 | 12.9 | 0.00 | 0.00 | 0.00 | 58 | 1011.3 |
| 20260905210003 | 35 | 358 | 3.2 | 14.5 | 0.00 | 0.00 | 0.00 | 58 | 1011.3 |
| 20260905205503 | 35 | 337 | 9.7 | 14.5 | 0.00 | 0.00 | 0.00 | 58 | 1011.4 |
| 20260905205003 | 35 | 18 | 1.6 | 12.9 | 0.00 | 0.00 | 0.00 | 59 | 1011.5 |
| 20260905204504 | 35 | 319 | 0.0 | 12.9 | 0.00 | 0.00 | 0.00 | 58 | 1011.5 |
| 20260905204004 | 35 | 303 | 4.8 | 9.7 | 0.00 | 0.00 | 0.00 | 57 | 1011.6 |
| 20260905203504 | 35 | 74 | 0.0 | 6.4 | 0.00 | 0.00 | 0.00 | 57 | 1011.7 |
| 20260905203002 | 35 | 74 | 0.0 | 6.4 | 0.00 | 0.00 | 0.00 | 58 | 1011.8 |
| 20260905202503 | 35 | 36 | 0.0 | 14.5 | 0.00 | 0.00 | 0.00 | 57 | 1011.8 |
| 20260905202003 | 35 | 18 | 3.2 | 16.1 | 0.00 | 0.00 | 0.00 | 57 | 1011.8 |
| 20260905201524 | 35 | 353 | 3.2 | 16.1 | 0.00 | 0.00 | 0.00 | 58 | 1011.9 |
| 20260905201003 | 35 | 349 | 6.4 | 16.1 | 0.00 | 0.00 | 0.00 | 58 | 1012.0 |
| 20260905200524 | 35 | 329 | 0.0 | 11.3 | 0.00 | 0.00 | 0.00 | 60 | 1012.2 |
| 20260905200003 | 35 | 339 | 4.8 | 11.3 | 0.00 | 0.00 | 0.00 | 60 | 1012.3 |
| 20260905195503 | 34 | 66 | 0.0 | 8.0 | 0.00 | 0.00 | 0.00 | 60 | 1012.4 |
| 20260905195004 | 34 | 311 | 4.8 | 11.3 | 0.00 | 0.00 | 0.00 | 61 | 1012.4 |
| 20260905194525 | 34 | 325 | 1.6 | 11.3 | 0.00 | 0.00 | 0.00 | 61 | 1012.4 |
| 20260905194003 | 34 | 338 | 3.2 | 12.9 | 0.00 | 0.00 | 0.00 | 61 | 1012.5 |
| 20260905193503 | 34 | 20 | 3.2 | 12.9 | 0.00 | 0.00 | 0.00 | 61 | 1012.5 |
| 20260905193025 | 34 | 326 | 4.8 | 11.3 | 0.00 | 0.00 | 0.00 | 62 | 1012.6 |
| 20260905192504 | 34 | 239 | 1.6 | 9.7 | 0.00 | 0.00 | 0.00 | 63 | 1012.5 |
| 20260905192004 | 34 | 162 | 4.8 | 11.3 | 0.00 | 0.00 | 0.00 | 63 | 1012.6 |
| 20260905191504 | 33 | 44 | 0.0 | 12.9 | 0.00 | 0.00 | 0.00 | 63 | 1012.7 |
| 20260905191003 | 33 | 42 | 3.2 | 14.5 | 0.00 | 0.00 | 0.00 | 63 | 1012.9 |
| 20260905190503 | 34 | 15 | 3.2 | 14.5 | 0.00 | 0.00 | 0.00 | 62 | 1013.0 |
| 20260905190003 | 34 | 19 | 3.2 | 11.3 | 0.00 | 0.00 | 0.00 | 63 | 1013.0 |
| 20260905185503 | 34 | 219 | 1.6 | 9.7 | 0.00 | 0.00 | 0.00 | 63 | 1013.1 |
| 20260905185002 | 34 | 221 | 0.0 | 8.0 | 0.00 | 0.00 | 0.00 | 64 | 1013.2 |
| 20260905184503 | 33 | 68 | 0.0 | 8.0 | 0.00 | 0.00 | 0.00 | 64 | 1013.2 |
| 20260905184003 | 33 | 67 | 1.6 | 12.9 | 0.00 | 0.00 | 0.00 | 64 | 1013.3 |
| 20260905183504 | 33 | 325 | 1.6 | 14.5 | 0.00 | 0.00 | 0.00 | 65 | 1013.4 |
| 20260905183004 | 33 | 333 | 8.0 | 17.7 | 0.00 | 0.00 | 0.00 | 66 | 1013.4 |
| 20260905182526 | 33 | 338 | 11.3 | 17.7 | 0.00 | 0.00 | 0.00 | 65 | 1013.5 |
| 20260905182003 | 33 | 101 | 3.2 | 9.7 | 0.00 | 0.00 | 0.00 | 65 | 1013.4 |
| 20260905181546 | 33 | 187 | 0.0 | 12.9 | 0.00 | 0.00 | 0.00 | 66 | 1013.5 |
| 20260905181003 | 32 | 59 | 0.0 | 14.5 | 0.00 | 0.00 | 0.00 | 67 | 1013.7 |
| 20260905180003 | 32 | 338 | 11.3 | 17.7 | 0.00 | 0.00 | 0.00 | 67 | 1013.7 |
| 20260905175505 | 33 | 9 | 3.2 | 9.7 | 0.00 | 0.00 | 0.00 | 68 | 1013.8 |
| 20260905175004 | 32 | 305 | 0.0 | 0.0 | 0.00 | 0.00 | 0.00 | 69 | 1013.8 |
| 20260905174504 | 32 | 305 | 0.0 | 11.3 | 0.00 | 0.00 | 0.00 | 69 | 1013.8 |
| 20260905174003 | 32 | 301 | 6.4 | 12.9 | 0.00 | 0.00 | 0.00 | 69 | 1013.9 |
| 20260905173503 | 32 | 288 | 4.8 | 12.9 | 0.00 | 0.00 | 0.00 | 69 | 1013.9 |
| 20260905173024 | 32 | 347 | 3.2 | 14.5 | 0.00 | 0.00 | 0.00 | 70 | 1014.0 |
| 20260905172503 | 32 | 312 | 11.3 | 14.5 | 0.00 | 0.00 | 0.00 | 69 | 1014.1 |
| 20260905172003 | 32 | 208 | 1.6 | 12.9 | 0.00 | 0.00 | 0.00 | 69 | 1014.1 |
| 20260905171503 | 32 | 258 | 6.4 | 12.9 | 0.00 | 0.00 | 0.00 | 69 | 1014.2 |
| 20260905171003 | 32 | 161 | 0.0 | 6.4 | 0.00 | 0.00 | 0.00 | 68 | 1014.2 |
| 20260905170503 | 32 | 80 | 0.0 | 11.3 | 0.00 | 0.00 | 0.00 | 70 | 1014.3 |
| 20260905170003 | 32 | 6 | 1.6 | 12.9 | 0.00 | 0.00 | 0.00 | 72 | 1014.3 |
| 20260905165503 | 32 | 334 | 1.6 | 12.9 | 0.00 | 0.00 | 0.00 | 72 | 1014.3 |
| 20260905165003 | 32 | 15 | 0.0 | 12.9 | 0.00 | 0.00 | 0.00 | 73 | 1014.4 |
| 20260905164503 | 32 | 358 | 3.2 | 12.9 | 0.00 | 0.00 | 0.00 | 74 | 1014.4 |
| 20260905164003 | 32 | 76 | 1.6 | 11.3 | 0.00 | 0.00 | 0.00 | 74 | 1014.5 |
| 20260905163503 | 32 | 46 | 0.0 | 12.9 | 0.00 | 0.00 | 0.00 | 74 | 1014.7 |
| 20260905163003 | 32 | 359 | 8.0 | 12.9 | 0.00 | 0.00 | 0.00 | 75 | 1014.7 |
| 20260905162504 | 31 | 312 | 0.0 | 9.7 | 0.00 | 0.00 | 0.00 | 76 | 1014.8 |
| 20260905162003 | 31 | 88 | 0.0 | 14.5 | 0.00 | 0.00 | 0.00 | 77 | 1014.9 |
| 20260905161504 | 31 | 109 | 1.6 | 16.1 | 0.00 | 0.00 | 0.00 | 77 | 1015.0 |
| 20260905161004 | 31 | 337 | 9.7 | 16.1 | 0.00 | 0.00 | 0.00 | 78 | 1015.0 |
| 20260905160504 | 31 | 161 | 0.0 | 8.0 | 0.00 | 0.00 | 0.00 | 79 | 1015.0 |
| 20260905160002 | 31 | 165 | 0.0 | 8.0 | 0.00 | 0.00 | 0.00 | 79 | 1015.1 |
| 20260905155525 | 30 | 219 | 1.6 | 11.3 | 0.00 | 0.00 | 0.00 | 80 | 1015.1 |
| 20260905155024 | 31 | 226 | 1.6 | 11.3 | 0.00 | 0.00 | 0.00 | 81 | 1015.2 |
| 20260905154504 | 30 | 341 | 1.6 | 4.8 | 0.00 | 0.00 | 0.00 | 84 | 1015.2 |
| 20260905154003 | 30 | 248 | 0.0 | 9.7 | 0.00 | 0.00 | 0.00 | 84 | 1015.2 |
| 20260905153503 | 30 | 302 | 6.4 | 11.3 | 0.00 | 0.00 | 0.00 | 85 | 1015.3 |
| 20260905153003 | 30 | 317 | 3.2 | 11.3 | 0.00 | 0.00 | 0.00 | 88 | 1015.2 |
| 20260905152502 | 30 | 317 | 0.0 | 8.0 | 0.00 | 0.00 | 0.00 | 88 | 1015.2 |
| 20260905151503 | 28 | 241 | 3.2 | 9.7 | 0.00 | 0.00 | 0.00 | 92 | 1015.3 |
| 20260905151004 | 28 | 187 | 0.0 | 6.4 | 0.00 | 0.00 | 0.00 | 93 | 1015.2 |
| 20260905150546 | 28 | 298 | 1.6 | 6.4 | 0.00 | 0.00 | 0.00 | 95 | 1015.3 |
| 20260905150004 | 28 | 310 | 0.0 | 8.0 | 0.00 | 0.00 | 0.00 | 96 | 1015.2 |
| 20260905145504 | 27 | 310 | 0.0 | 8.0 | 0.00 | 0.00 | 0.00 | 98 | 1015.2 |
| 20260905145003 | 27 | 271 | 0.0 | 8.0 | 0.00 | 0.00 | 0.00 | 99 | 1015.2 |
| 20260905144503 | 27 | 312 | 1.6 | 6.4 | 0.00 | 0.00 | 0.00 | 100 | 1015.3 |
| 20260905144003 | -35 | 140 | 0.0 | 0.0 | 0.00 | 0.00 | 0.00 | 100 | 1015.4 |
| 20260905143503 | -27 | 140 | 0.0 | 0.0 | 0.00 | 0.00 | 0.00 | 100 | 1015.4 |
| 20260905143003 | -30 | 140 | 0.0 | 0.0 | 0.00 | 0.00 | 0.00 | 100 | 1015.5 |
| 20260905142504 | -17 | 140 | 0.0 | 0.0 | 0.00 | 0.00 | 0.00 | 100 | 1015.5 |
| 20260905142003 | -21 | 140 | 0.0 | 0.0 | 0.00 | 0.00 | 0.00 | 100 | 1015.6 |
| 20260905141504 | -13 | 140 | 0.0 | 0.0 | 0.00 | 0.00 | 0.00 | 100 | 1015.6 |
| 20260905141004 | -10 | 140 | 0.0 | 4.8 | 0.00 | 0.00 | 0.00 | 100 | 1015.7 |
| 20260905140503 | -7 | 140 | 0.0 | 6.4 | 0.00 | 0.00 | 0.00 | 100 | 1015.7 |
| 20260905140004 | -7 | 211 | 3.2 | 6.4 | 0.00 | 0.00 | 0.00 | 100 | 1015.8 |
| 20260905135502 | -6 | 358 | 0.0 | 0.0 | 0.00 | 0.00 | 0.00 | 100 | 1015.8 |
| 20260905135005 | -8 | 358 | 0.0 | 0.0 | 0.00 | 0.00 | 0.00 | 100 | 1015.8 |
| 20260905134503 | 24 | 358 | 0.0 | 0.0 | 0.00 | 0.00 | 0.00 | 100 | 1015.8 |
| 20260905134003 | 24 | 358 | 0.0 | 0.0 | 0.00 | 0.00 | 0.00 | 100 | 1015.8 |
| 20260905133504 | 23 | 358 | 0.0 | 1.6 | 0.00 | 0.00 | 0.00 | 100 | 1015.9 |
| 20260905133003 | 23 | 357 | 0.0 | 1.6 | 0.00 | 0.00 | 0.00 | 100 | 1015.9 |
| 20260905132524 | 23 | 358 | 0.0 | 0.0 | 0.00 | 0.00 | 0.00 | 100 | 1015.9 |
| 20260905132004 | 23 | 358 | 0.0 | 0.0 | 0.00 | 0.00 | 0.00 | 100 | 1015.9 |
| 20260905131524 | 23 | 358 | 0.0 | 0.0 | 0.00 | 0.00 | 0.00 | 100 | 1015.9 |
| 20260905131003 | 23 | 358 | 0.0 | 0.0 | 0.00 | 0.00 | 0.00 | 100 | 1015.9 |
| 20260905130503 | 22 | 358 | 0.0 | 0.0 | 0.00 | 0.00 | 0.00 | 100 | 1015.9 |
| 20260905130025 | 22 | 358 | 0.0 | 0.0 | 0.00 | 0.00 | 0.00 | 100 | 1015.9 |
| 20260905125503 | 22 | 358 | 0.0 | 0.0 | 0.00 | 0.00 | 0.00 | 100 | 1016.0 |
| 20260905125003 | 22 | 358 | 0.0 | 0.0 | 0.00 | 0.00 | 0.00 | 100 | 1015.9 |
| 20260905124505 | 22 | 358 | 0.0 | 0.0 | 0.00 | 0.00 | 0.00 | 100 | 1015.9 |
| 20260905124025 | 22 | 358 | 0.0 | 0.0 | 0.00 | 0.00 | 0.00 | 100 | 1016.0 |
| 20260905123503 | 21 | 358 | 0.0 | 0.0 | 0.00 | 0.00 | 0.00 | 100 | 1016.0 |
| 20260905123003 | 21 | 358 | 0.0 | 0.0 | 0.00 | 0.00 | 0.00 | 100 | 1015.9 |
| 20260905122503 | 21 | 358 | 0.0 | 0.0 | 0.00 | 0.00 | 0.00 | 100 | 1015.9 |
| 20260905122004 | 21 | 358 | 0.0 | 0.0 | 0.00 | 0.00 | 0.00 | 100 | 1016.0 |
| 20260905121503 | 21 | 358 | 0.0 | 0.0 | 0.00 | 0.00 | 0.00 | 100 | 1015.8 |
| 20260905121003 | 21 | 358 | 0.0 | 0.0 | 0.00 | 0.00 | 0.00 | 100 | 1015.7 |
| 20260905120503 | 21 | 358 | 0.0 | 0.0 | 0.00 | 0.00 | 0.00 | 100 | 1015.6 |
| 20260905120004 | 21 | 358 | 0.0 | 0.0 | 0.00 | 0.00 | 0.00 | 100 | 1015.7 |
| 20260905115503 | 21 | 358 | 0.0 | 0.0 | 0.00 | 0.00 | 0.00 | 100 | 1015.6 |
| 20260905115004 | 21 | 358 | 0.0 | 0.0 | 0.00 | 0.00 | 0.00 | 100 | 1015.5 |
| 20260905114503 | 21 | 358 | 0.0 | 0.0 | 0.00 | 0.00 | 0.00 | 100 | 1015.4 |
| 20260905114003 | 21 | 358 | 0.0 | 0.0 | 0.00 | 0.00 | 0.00 | 100 | 1015.2 |
| 20260905113504 | 21 | 358 | 0.0 | 0.0 | 0.00 | 0.00 | 0.00 | 100 | 1015.1 |
| 20260905113004 | 21 | 358 | 0.0 | 0.0 | 0.00 | 0.00 | 0.00 | 100 | 1015.1 |
| 20260905112503 | 21 | 358 | 0.0 | 0.0 | 0.00 | 0.00 | 0.00 | 100 | 1015.2 |
| 20260905112003 | 21 | 358 | 0.0 | 0.0 | 0.00 | 0.00 | 0.00 | 100 | 1015.0 |
| 20260905111504 | 21 | 358 | 0.0 | 0.0 | 0.00 | 0.00 | 0.00 | 100 | 1015.0 |
| 20260905111025 | 21 | 358 | 0.0 | 0.0 | 0.00 | 0.00 | 0.00 | 100 | 1015.0 |
| 20260905110504 | 21 | 358 | 0.0 | 0.0 | 0.00 | 0.00 | 0.00 | 100 | 1014.9 |
| 20260905110004 | 21 | 358 | 0.0 | 0.0 | 0.00 | 0.00 | 0.00 | 100 | 1014.8 |
| 20260905105503 | 21 | 358 | 0.0 | 0.0 | 0.00 | 0.00 | 0.00 | 100 | 1014.8 |
| 20260905105005 | 21 | 358 | 0.0 | 0.0 | 0.00 | 0.00 | 0.00 | 100 | 1014.9 |
| 20260905104503 | 21 | 358 | 0.0 | 0.0 | 0.00 | 0.00 | 0.00 | 100 | 1014.9 |
| 20260905104003 | 21 | 358 | 0.0 | 0.0 | 0.00 | 0.00 | 0.00 | 100 | 1014.8 |
| 20260905103504 | 21 | 358 | 0.0 | 0.0 | 0.00 | 0.00 | 0.00 | 100 | 1014.7 |
| 20260905103003 | 21 | 358 | 0.0 | 0.0 | 0.00 | 0.00 | 0.00 | 100 | 1014.6 |
| 20260905102503 | 21 | 358 | 0.0 | 0.0 | 0.00 | 0.00 | 0.00 | 100 | 1014.6 |
| 20260905102006 | 21 | 358 | 0.0 | 0.0 | 0.00 | 0.00 | 0.00 | 100 | 1014.6 |
| 20260905101503 | 21 | 358 | 0.0 | 0.0 | 0.00 | 0.00 | 0.00 | 100 | 1014.5 |
| 20260905101004 | 21 | 358 | 0.0 | 0.0 | 0.00 | 0.00 | 0.00 | 100 | 1014.5 |
| 20260905100503 | 21 | 358 | 0.0 | 0.0 | 0.00 | 0.00 | 0.00 | 100 | 1014.5 |
| 20260905100003 | 21 | 358 | 0.0 | 0.0 | 0.00 | 0.00 | 0.00 | 100 | 1014.5 |
| 20260905095525 | 21 | 358 | 0.0 | 0.0 | 0.00 | 0.00 | 0.00 | 100 | 1014.5 |
| 20260905095004 | 21 | 358 | 0.0 | 0.0 | 0.00 | 0.00 | 0.00 | 100 | 1014.6 |
| 20260905094503 | 21 | 358 | 0.0 | 0.0 | 0.00 | 0.00 | 0.00 | 100 | 1014.6 |
| 20260905094004 | 21 | 358 | 0.0 | 0.0 | 0.00 | 0.00 | 0.00 | 100 | 1014.5 |
| 20260905093526 | 21 | 358 | 0.0 | 0.0 | 0.00 | 0.00 | 0.00 | 100 | 1014.5 |
| 20260905093005 | 21 | 358 | 0.0 | 0.0 | 0.00 | 0.00 | 0.00 | 100 | 1014.4 |
| 20260905092504 | 21 | 358 | 0.0 | 0.0 | 0.00 | 0.00 | 0.00 | 100 | 1014.4 |
| 20260905092003 | 21 | 358 | 0.0 | 0.0 | 0.00 | 0.00 | 0.00 | 100 | 1014.4 |
| 20260905091504 | 21 | 358 | 0.0 | 0.0 | 0.00 | 0.00 | 0.00 | 100 | 1014.4 |
| 20260905091003 | 21 | 358 | 0.0 | 0.0 | 0.00 | 0.00 | 0.00 | 100 | 1014.3 |
| 20260905090504 | 21 | 358 | 0.0 | 0.0 | 0.00 | 0.00 | 0.00 | 100 | 1014.3 |
| 20260905090025 | 21 | 358 | 0.0 | 0.0 | 0.00 | 0.00 | 0.00 | 100 | 1014.3 |
| 20260905085546 | 21 | 358 | 0.0 | 0.0 | 0.00 | 0.00 | 0.00 | 100 | 1014.3 |
| 20260905085003 | 21 | 358 | 0.0 | 0.0 | 0.00 | 0.00 | 0.00 | 100 | 1014.4 |
| 20260905084524 | 21 | 358 | 0.0 | 0.0 | 0.00 | 0.00 | 0.00 | 100 | 1014.4 |
| 20260905084003 | 22 | 358 | 0.0 | 0.0 | 0.00 | 0.00 | 0.00 | 100 | 1014.3 |
| 20260905083503 | 22 | 358 | 0.0 | 0.0 | 0.00 | 0.00 | 0.00 | 100 | 1014.3 |
| 20260905083024 | 22 | 358 | 0.0 | 0.0 | 0.00 | 0.00 | 0.00 | 100 | 1014.4 |